Location: Kergonan
(48.2337°N, 4.5518°W)
Time: 16:40:08
(UTC+00:00)

CZ-2C R/B - Pass Details

Date: 18 January 2020
Orbit: 669 x 783 km, 98.1° (Epoch: 25 February)

Event Time Altitude Azimuth Distance (km) Brightness Sun altitude
Rises 05:47:21 0° 5° (N) 3,149 5.7 -22.0°
Reaches altitude 10° 05:49:50 10° 354° (N) 2,243 4.8 -21.6°
Enters shadow 05:51:02 16° 345° (NNW) 1,862 4.3 -21.4°
